OPS 0082 (TRANSIT 13)

Satellite information

Favourite Embed

Satellite Type and Status

PAYLOADIN ORBIT

Key statistics

Satellite OPS 0082 (TRANSIT 13) at a glance.

Uptime

21759

Days in orbit

Revolutions

≈ 14.0

Per day

Orbit

SSO

Sun Synchronous Orbit

Inclination

90.2

Latest

Satellite identification and parameters

Extended collection of information and parameters for OPS 0082 (TRANSIT 13).

Object identification

Identified? True

Debris? False

Object name: OPS 0082 (TRANSIT 13)

International designator: 1966-041A

Object number (NORAD): 2176

Object ID (CCSDS): 2176

Country: UNITED STATES OF AMERICA (US)

Current information (Y/N): Y

RCS size: LARGE

Orbital parameters

Period: 102.546 minutes

Inclination: 90.2359 deg

SMA: 7257.244 km

Apoapsis: 922.561 km

Periapsis: 835.656 km

RAAN: 78.4857 deg

Eccentricy: 0.00598747

Argument of periapsis: 341.2153 deg

Mean anomaly: 18.6819 deg

Mean motion: 14.04252511 rev/day

Mean motion (dot): 0.00000428 rev/day2

B* drag term: 0.00025934162 1/REarth

Two-line elements (TLE)

Creation date: Dec. 12, 2025, 10:14 a.m.

Reference frame: TEME

Reference center: EARTH

Epoch: Dec. 12, 2025, 6:34 a.m. UTC

TLE line 0: 0 OPS 0082 (TRANSIT 13)

TLE line 1: 1 02176U 66041A 25346.27390851 .00000428 00000-0 25934-3 0 9998

TLE line 2: 2 02176 90.2359 78.4857 0059875 341.2153 18.6819 14.04252511 41203

Live tracking on map

Real-time ground track for satellite OPS 0082 (TRANSIT 13).

In-orbit conjunctions

There are no conjunctions computed for OPS 0082 (TRANSIT 13), at the moment. Check back to stay up to date, as we update our databases every day.

Go to all conjunctions

Associated space launch

The Transit-O series of satellites that closely followed the design of Transit 5C-1 were also called “Oscars” (Oscar is the phonetic alphabet for “O”, i. e., operational). They were also called NNS (Navy Navigation Satellite) or shortened NavSat.

OPS 0082 (TRANSIT 13) was lifted into orbit during the mission ‘Scout A | Transit-O 9’, on board a Scout A space rocket.

The launch took place on May 19, 1966, 2:27 a.m. from Space Launch Complex 5.

For more information about the launch, click the button.

Launch to space Scout A | Transit-O 9
Scout A | Transit-O 9

Agency: N/A

Status: Launch Successful

Launch date: May 19, 1966, 2:27 a.m. UTC

Rocket: Scout A

Launch pad: Space Launch Complex 5

Location: Vandenberg SFB, CA, USA

...

Latest news about this satellite

There are no fresh news available about this satellite. Check back as we update our databases every day.


Newsletter sign-up

Weekly statistics, charts and insights to help you stay on top of the space industry.